Hinckley, MN

7:50 PM CDT on April 22, 2018 (GMT -0500)
Hinckley

Weather History for K04W - November, 2013

Change the Weather History Date:

Monday, November 18, 2013

  Actual Average (KJMR) Record (KJMR)
Temperature  
Mean Temperature 24 °F -  
Max Temperature 32 °F 37 °F 61 °F (1941)
Min Temperature 17 °F 20 °F -5 °F (1986)
Degree Days  
Heating Degree Days 40    
Moisture  
Dew Point 20 °F    
Average Humidity 73    
Maximum Humidity 100    
Minimum Humidity 60    
Precipitation  
Precipitation 0.00 in - - ()
Sea Level Pressure  
Sea Level Pressure 30.05 in    
Wind  
Wind Speed 11 mph (WNW)    
Max Wind Speed 21 mph    
Max Gust Speed 29 mph    
Visibility 10 miles    
Events      
Averages and records for this station are not official NWS values.
T = Trace of Precipitation, MM = Missing Value Source: NWS Daily Summary

Daily Weather History Graph

Daily Weather History Graph

Search for Another Location

Airport or City:

Astronomy

Nov. 18, 2013 Rise Set
Actual Time 7:16 AM CST 4:36 PM CST
Civil Twilight 6:43 AM CST 5:09 PM CST
Nautical Twilight 6:07 AM CST 5:45 PM CST
Astronomical Twilight 5:31 AM CST 6:21 PM CST
Moon 5:38 PM CST (11/18) 8:06 AM CST (11/18)
Length of Visible Light 10h 25m
Length of Day
9h 19m
Full, 99% of the Moon is Illuminated
Nov 18
Full
Nov 25
Last Quarter
Dec 2
New
Dec 9
First Quarter
Dec 17
Full

Hourly Weather History & Observations

Time (CST) Temp. Windchill Dew Point Humidity Pressure Visibility Wind Dir Wind Speed Gust Speed Precip Events Conditions
12:00 AM 30.2 °F 19.3 °F 23.0 °F 75% 29.74 in 10.0 mi West 15.0 mph 23.0 mph N/A   Overcast
12:20 AM 30.2 °F 21.3 °F 23.0 °F 75% 29.75 in 10.0 mi WNW 10.4 mph 20.7 mph N/A   Overcast
12:40 AM 30.2 °F 18.9 °F 23.0 °F 75% 29.76 in 10.0 mi NW 16.1 mph 23.0 mph N/A   Overcast
1:00 AM 30.2 °F 20.8 °F 23.0 °F 75% 29.77 in 10.0 mi WNW 11.5 mph 25.3 mph N/A   Overcast
1:20 AM 28.4 °F 16.6 °F 23.0 °F 80% 29.77 in 10.0 mi NW 16.1 mph 21.9 mph N/A   Overcast
1:40 AM 28.4 °F 17.0 °F 21.2 °F 74% 29.78 in 10.0 mi WNW 15.0 mph 19.6 mph N/A   Overcast
2:00 AM 28.4 °F 16.6 °F 21.2 °F 74% 29.80 in 10.0 mi WNW 16.1 mph 24.2 mph N/A   Overcast
2:21 AM 28.4 °F 15.8 °F 21.2 °F 74% 29.81 in 10.0 mi NW 18.4 mph 23.0 mph N/A   Overcast
2:40 AM 28.4 °F 17.5 °F 21.2 °F 74% 29.82 in 10.0 mi WNW 13.8 mph 20.7 mph N/A   Overcast
3:00 AM 28.4 °F 17.0 °F 21.2 °F 74% 29.83 in 10.0 mi WNW 15.0 mph 23.0 mph N/A   Overcast
3:21 AM 28.4 °F 18.0 °F 21.2 °F 74% 29.84 in 10.0 mi WNW 12.7 mph 20.7 mph N/A   Overcast
3:40 AM 28.4 °F 17.5 °F 21.2 °F 74% 29.84 in 10.0 mi West 13.8 mph 19.6 mph N/A   Overcast
4:00 AM 28.4 °F 17.5 °F 21.2 °F 74% 29.85 in 10.0 mi NW 13.8 mph 21.9 mph N/A   Overcast
4:21 AM 28.4 °F 17.5 °F 21.2 °F 74% 29.87 in 10.0 mi NW 13.8 mph 23.0 mph N/A   Overcast
4:40 AM 28.4 °F 15.1 °F 19.4 °F 69% 29.87 in 10.0 mi NW 20.7 mph 28.8 mph N/A   Overcast
5:00 AM 28.4 °F 15.8 °F 19.4 °F 69% 29.89 in 10.0 mi NW 18.4 mph 28.8 mph N/A   Overcast
5:20 AM 28.4 °F 17.5 °F 19.4 °F 69% 29.90 in 10.0 mi WNW 13.8 mph 26.5 mph N/A   Overcast
5:40 AM 28.4 °F 18.0 °F 19.4 °F 69% 29.91 in 10.0 mi WNW 12.7 mph 23.0 mph N/A   Overcast
6:01 AM 28.4 °F 16.6 °F 19.4 °F 69% 29.91 in 10.0 mi WNW 16.1 mph 25.3 mph N/A   Overcast
6:20 AM 28.4 °F 18.5 °F 19.4 °F 69% 29.92 in 10.0 mi WNW 11.5 mph 23.0 mph N/A   Overcast
6:40 AM 28.4 °F 18.0 °F 19.4 °F 69% 29.93 in 10.0 mi WNW 12.7 mph 20.7 mph N/A   Overcast
7:01 AM 28.4 °F 18.5 °F 19.4 °F 69% 29.94 in 10.0 mi WNW 11.5 mph 18.4 mph N/A   Overcast
7:20 AM 28.4 °F 21.2 °F 19.4 °F 69% 29.95 in 10.0 mi WNW 6.9 mph 11.5 mph N/A   Overcast
7:40 AM 28.4 °F 18.0 °F 19.4 °F 69% 29.96 in 10.0 mi NW 12.7 mph 19.6 mph N/A   Overcast
8:00 AM 28.4 °F 19.1 °F 19.4 °F 69% 29.98 in 10.0 mi WNW 10.4 mph 17.3 mph N/A   Overcast
8:20 AM 28.4 °F 19.7 °F 19.4 °F 69% 29.98 in 10.0 mi WNW 9.2 mph 16.1 mph N/A   Overcast
8:40 AM 28.4 °F 19.7 °F 19.4 °F 69% 29.99 in 10.0 mi WNW 9.2 mph 16.1 mph N/A   Overcast
9:00 AM 28.4 °F 18.0 °F 19.4 °F 69% 30.00 in 10.0 mi NW 12.7 mph 17.3 mph N/A   Overcast
9:20 AM 28.4 °F 19.7 °F 19.4 °F 69% 30.02 in 10.0 mi WNW 9.2 mph - N/A   Overcast
9:40 AM 28.4 °F 19.1 °F 19.4 °F 69% 30.03 in 10.0 mi West 10.4 mph - N/A   Overcast
10:00 AM 28.4 °F 19.1 °F 19.4 °F 69% 30.05 in 10.0 mi WNW 10.4 mph 17.3 mph N/A   Overcast
10:20 AM 28.4 °F 19.7 °F 19.4 °F 69% 30.06 in 10.0 mi WNW 9.2 mph - N/A   Overcast
10:40 AM 28.4 °F 18.5 °F 19.4 °F 69% 30.08 in 10.0 mi WNW 11.5 mph 17.3 mph N/A   Overcast
11:00 AM 28.4 °F 18.5 °F 19.4 °F 69% 30.08 in 10.0 mi WNW 11.5 mph 17.3 mph N/A   Overcast
11:20 AM 28.4 °F 19.1 °F 19.4 °F 69% 30.10 in 10.0 mi WNW 10.4 mph - N/A   Overcast
11:40 AM 28.4 °F 19.1 °F 19.4 °F 69% 30.10 in 10.0 mi West 10.4 mph 20.7 mph N/A   Overcast
12:00 PM 28.4 °F 19.1 °F 19.4 °F 69% 30.11 in 10.0 mi WNW 10.4 mph 17.3 mph N/A   Overcast
12:20 PM 30.2 °F 21.9 °F 19.4 °F 64% 30.11 in 10.0 mi NW 9.2 mph 16.1 mph N/A   Overcast
12:41 PM 30.2 °F 21.3 °F 19.4 °F 64% 30.11 in 10.0 mi WNW 10.4 mph 17.3 mph N/A   Overcast
1:01 PM 30.2 °F 21.3 °F 19.4 °F 64% 30.11 in 10.0 mi WNW 10.4 mph 16.1 mph N/A   Overcast
1:20 PM 30.2 °F 21.9 °F 19.4 °F 64% 30.12 in 10.0 mi WNW 9.2 mph - N/A   Overcast
1:41 PM 30.2 °F 21.9 °F 19.4 °F 64% 30.13 in 10.0 mi WNW 9.2 mph - N/A   Overcast
2:00 PM 30.2 °F 21.3 °F 19.4 °F 64% 30.13 in 10.0 mi WNW 10.4 mph - N/A   Overcast
2:20 PM 30.2 °F 23.4 °F 19.4 °F 64% 30.13 in 10.0 mi NW 6.9 mph - N/A   Overcast
2:41 PM 32.0 °F 23.6 °F 19.4 °F 60% 30.14 in 10.0 mi WNW 10.4 mph 18.4 mph N/A   Overcast
3:00 PM 30.2 °F 21.9 °F 19.4 °F 64% 30.14 in 10.0 mi West 9.2 mph 17.3 mph N/A   Overcast
3:20 PM 30.2 °F 24.3 °F 19.4 °F 64% 30.15 in 10.0 mi West 5.8 mph - N/A   Mostly Cloudy
3:41 PM 30.2 °F 21.9 °F 19.4 °F 64% 30.16 in 10.0 mi West 9.2 mph 17.3 mph N/A   Overcast
4:00 PM 30.2 °F 24.3 °F 19.4 °F 64% 30.16 in 10.0 mi West 5.8 mph - N/A   Overcast
4:20 PM 30.2 °F 24.3 °F 19.4 °F 64% 30.17 in 10.0 mi WNW 5.8 mph - N/A   Overcast
4:41 PM 30.2 °F 24.3 °F 21.2 °F 69% 30.17 in 10.0 mi West 5.8 mph - N/A   Overcast
5:00 PM 28.4 °F 23.3 °F 21.2 °F 74% 30.17 in 10.0 mi NW 4.6 mph - N/A   Overcast
5:20 PM 28.4 °F 23.3 °F 19.4 °F 69% 30.18 in 10.0 mi NW 4.6 mph - N/A   Overcast
5:41 PM 28.4 °F 24.6 °F 19.4 °F 69% 30.19 in 10.0 mi WNW 3.5 mph - N/A   Overcast
6:00 PM 28.4 °F 22.2 °F 19.4 °F 69% 30.19 in 10.0 mi WNW 5.8 mph - N/A   Overcast
6:05 PM 28.4 °F 23.3 °F 19.4 °F 69% 30.20 in 10.0 mi WNW 4.6 mph - N/A   Overcast
6:41 PM 28.4 °F 23.3 °F 19.4 °F 69% 30.20 in 10.0 mi WNW 4.6 mph - N/A   Overcast
7:00 PM 28.4 °F 24.6 °F 19.4 °F 69% 30.20 in 10.0 mi WNW 3.5 mph - N/A   Overcast
7:20 PM 26.6 °F 22.6 °F 19.4 °F 74% 30.21 in 10.0 mi WNW 3.5 mph - N/A   Mostly Cloudy
7:41 PM 26.6 °F - 19.4 °F 74% 30.20 in 10.0 mi Calm Calm - N/A   Scattered Clouds
8:00 PM 26.6 °F - 19.4 °F 74% 30.21 in 10.0 mi Calm Calm - N/A   Clear
8:20 PM 23.0 °F 18.4 °F 19.4 °F 86% 30.22 in 10.0 mi West 3.5 mph - N/A   Clear
8:41 PM 23.0 °F 15.8 °F 19.4 °F 86% 30.23 in 10.0 mi West 5.8 mph - N/A   Mostly Cloudy
9:00 PM 23.0 °F - 19.4 °F 86% 30.22 in 10.0 mi Calm Calm - N/A   Scattered Clouds
9:20 PM 21.2 °F - 19.4 °F 93% 30.23 in 10.0 mi Calm Calm - N/A   Clear
9:41 PM 21.2 °F - 19.4 °F 93% 30.23 in 10.0 mi Calm Calm - N/A   Clear
10:00 PM 21.2 °F - 19.4 °F 93% 30.23 in 10.0 mi Calm Calm - N/A   Clear
10:20 PM 19.4 °F - 17.6 °F 93% 30.22 in 10.0 mi Calm Calm - N/A   Clear
10:41 PM 19.4 °F - 17.6 °F 93% 30.23 in 10.0 mi Calm Calm - N/A   Clear
11:00 PM 19.4 °F - 17.6 °F 93% 30.23 in 10.0 mi Calm Calm - N/A   Clear
11:20 PM 17.6 °F - 17.6 °F 100% 30.23 in 10.0 mi Calm Calm - N/A   Clear
11:40 PM 19.4 °F - 17.6 °F 93% 30.23 in 10.0 mi Calm Calm - N/A   Clear